Notices

What's New in latest Release from April 7th, 2021:

- Updated Glossary, including Speed of Maximum Gust, and Total Hourly Precipitation

- Updated national and regional climate services offices contacts and prices information

- Addition of station inventory lists for 1981-2010, 1971-2000, and 1961-1990 Normals.

If you haven't already, please take our survey and provide feedback about our website: https://eccc.sondage-survey.ca/f/LanguageSelection.aspx?s=442ca660-fcf1-47c0-95a9-59707d6fd709

Hourly Data Report for June 23, 2015

KELOWNA UBCO
BRITISH COLUMBIA

49°56'26.700" N
119°24'00.760" W
456.00 m
1123996
71644
VKU

Download Data

Hourly Data (June 2015)
Hourly Data Report for June 23, 2015
TIME
LST
Temp Definition
°C
Dew Point Definition
°C
Rel Hum Definition
%
Precip. Amount Definition
mm

Wind Dir Definition
10's deg

Wind Spd Definition
km/h
Visibility Definition
km
Stn Press Definition
kPa
Hmdx Definition


Wind Chill Definition


Weather Definition


00:00 19.0 8.2 50 0.0       96.32     LegendNANA
01:00 17.2 9.6 61 0.0       96.35     LegendNANA
02:00 15.4 9.3 67 0.0       96.36     LegendNANA
03:00 15.8 9.8 67 0.0       96.38     LegendNANA
04:00 15.1 10.1 72 0.0       96.43     LegendNANA
05:00 15.6 11.2 75 0.2       96.50     LegendNANA
06:00 14.7 11.4 80 0.1       96.59     LegendNANA
07:00 14.5 12.0 85 1.2       96.60     LegendNANA
08:00 15.4 11.9 80 0.1       96.61     LegendNANA
09:00 17.6 8.4 55 0.0       96.58     LegendNANA
10:00 20.2 6.8 42 0.0       96.53     LegendNANA
11:00 22.8 6.6 35 0.0       96.49     LegendNANA
12:00 23.5 6.2 33 0.0       96.43     LegendNANA
13:00 25.4 6.6 30 0.0       96.36 25   LegendNANA
14:00 26.3 5.6 27 0.0       96.31 26   LegendNANA
15:00 26.4 5.0 25 0.0       96.25 26   LegendNANA
16:00 27.4 4.9 24 0.0       96.19 27   LegendNANA
17:00 27.6 2.5 20 0.0       96.14 26   LegendNANA
18:00 26.5 4.7 25 0.0       96.12 26   LegendNANA
19:00 25.2 5.2 28 0.0       96.13 25   LegendNANA
20:00 23.3 5.6 32 0.0       96.15     LegendNANA
21:00 20.9 6.4 39 0.0       96.20     LegendNANA
22:00 19.5 7.5 46 0.0       96.26     LegendNANA
23:00 16.9 7.6 54 0.0       96.30     LegendNANA

Notes on Data Quality.

Legend

  • E = Estimated
  • M = Missing
  • NA = Not Available*
  • [empty] = Indicates an unobserved value
Date modified: